DateTimeUTC,F1_A11,F1_S11,BsB_S11,BsG_S11,BsR_S11,BbsB_S11,BbsG_S11,BbsR_S11,BaB_A11,BaG_A11,BaR_A11,Tu_S11,T_S11,Uu_S11,U_S11,P_S11,T1_A11
2021-10-18T18:00:00Z,00000200,21000000,,,,,,,-000.35,-000.78,-000.73,17.1,24.3,,00.0,0675.8,30.9
2021-10-18T18:01:00Z,00000200,21000000,,,,,,,-000.41,0000.36,0000.05,17.1,24.3,,00.0,0675.8,30.9
2021-10-18T18:02:00Z,00000200,21000000,,,,,,,0000.16,-000.18,0000.03,17.1,24.3,,00.0,0675.8,30.9
2021-10-18T18:03:00Z,00000200,61000000,,,,,,,0000.36,0000.41,0000.53,17.1,24.3,,00.0,0675.8,30.9
2021-10-18T18:04:00Z,00000200,41000000,0001.25,0000.61,0000.37,-000.54,0000.33,0000.19,0000.59,0001.00,0000.40,17.3,24.1,,00.0,0676.8,30.9
2021-10-18T18:05:00Z,00000200,01000000,0000.62,0000.64,0000.11,0000.21,0000.30,0000.19,0000.58,0000.22,0000.77,17.4,24.0,,00.0,0676.8,31.0
2021-10-18T18:06:00Z,00000200,01000000,0000.06,0000.77,0000.17,0000.05,-000.12,-000.09,0000.92,0000.42,0000.12,17.5,24.1,,00.0,0676.8,31.0
2021-10-18T18:07:00Z,00000200,01000000,0000.49,0000.85,0000.37,0000.57,0000.19,0000.24,0000.49,0000.62,0000.65,17.6,24.1,,00.0,0676.8,31.0
2021-10-18T18:08:00Z,00000200,01000000,0001.60,0000.99,0000.20,0000.50,0000.20,0000.38,0002.36,0002.22,0001.65,17.6,24.1,,00.0,0676.8,31.0
2021-10-18T18:09:00Z,00000200,01000000,0001.20,0001.28,0000.62,-000.21,0000.11,0000.28,0002.60,0002.55,0001.84,17.7,24.1,,00.0,0676.8,31.0
2021-10-18T18:10:00Z,00000200,01000000,0001.25,0000.86,0000.20,0000.68,0000.24,0000.13,0003.86,0003.60,0002.87,17.8,24.2,,00.0,0676.8,31.0
2021-10-18T18:11:00Z,00000200,01000000,0002.90,0001.38,0000.76,0000.56,0000.18,0000.46,0011.49,0010.48,0008.36,17.8,24.2,,00.0,0676.8,31.0
2021-10-18T18:12:00Z,00000200,01000000,0003.14,0002.48,0001.30,0000.43,0000.59,0000.16,0022.67,0020.88,0016.40,17.7,24.2,,00.0,0676.8,31.0
2021-10-18T18:13:00Z,00000200,01000000,0004.92,0003.64,0001.80,0000.77,0000.59,0000.61,0037.88,0035.44,0028.53,17.6,24.1,,00.0,0676.8,31.0
2021-10-18T18:14:00Z,00000200,01000000,0011.68,0008.34,0005.07,0003.27,0002.40,0001.26,0118.19,0108.57,0086.71,17.6,24.1,,00.0,0676.8,31.0
2021-10-18T18:15:00Z,00000200,01000000,0013.81,0010.27,0006.52,0002.69,0002.45,0002.15,0165.11,0153.05,0122.80,17.5,24.0,,00.0,0676.8,31.0
2021-10-18T18:16:00Z,00000200,01000000,0012.31,0008.87,0004.96,0002.03,0001.98,0001.61,0134.83,0125.41,0100.26,17.5,24.0,,00.0,0676.8,30.9
2021-10-18T18:17:00Z,00000200,01000000,0007.57,0005.25,0003.35,0001.07,0001.44,0000.96,0080.79,0075.09,0060.58,17.5,24.0,,00.0,0676.8,30.9
2021-10-18T18:18:00Z,00000200,01000000,0001.91,0001.48,0000.58,0000.13,0000.36,0000.06,0014.50,0012.79,0010.72,17.5,24.0,,00.0,0676.8,31.0
2021-10-18T18:19:00Z,00000200,01000000,0001.20,0001.06,0000.44,0000.33,-000.24,0000.10,0003.06,0003.61,0002.69,17.6,24.0,,00.0,0676.8,31.0
2021-10-18T18:20:00Z,00000200,01000000,0002.27,0001.33,0000.34,0000.58,0000.29,0000.21,0001.49,0000.74,0000.68,17.7,24.1,,00.0,0676.8,31.0
2021-10-18T18:21:00Z,00000200,01000000,0002.44,0001.02,0000.79,0000.23,0000.12,0000.10,0000.69,0000.93,0000.92,17.7,24.1,,00.0,0676.9,31.0
2021-10-18T18:22:00Z,00000200,01000000,0001.29,0001.33,0000.30,0000.76,0000.12,0000.16,0000.45,0000.47,-000.00,17.8,24.2,,00.0,0676.8,31.0
2021-10-18T18:23:00Z,00000200,01000000,0002.80,0001.08,0000.32,0000.17,0000.05,0000.27,0000.88,0000.78,0001.00,17.8,24.2,,00.0,0676.9,31.0
2021-10-18T18:24:00Z,00000200,01000000,0001.36,0001.19,0000.31,0000.06,0000.41,0000.11,0000.62,0000.67,0000.12,17.8,24.2,,00.0,0676.9,31.0
2021-10-18T18:25:00Z,00000200,01000000,0001.54,0001.14,0000.45,0000.72,0000.00,0000.22,0000.57,0000.21,0000.14,17.7,24.2,,00.0,0676.9,31.0
2021-10-18T18:26:00Z,00000200,01000000,0001.27,0001.49,0000.59,0000.09,0000.35,0000.31,0000.46,0000.57,0000.72,17.6,24.1,,00.0,0676.8,31.0
2021-10-18T18:27:00Z,00000200,01000000,0001.40,0001.24,0000.67,0000.79,0000.02,0000.28,0000.34,0000.32,-000.00,17.6,24.1,,00.0,0676.8,31.0
2021-10-18T18:28:00Z,00000200,01000000,0002.43,0001.14,0000.44,0000.83,0000.27,0000.38,0000.71,0000.60,0000.86,17.5,24.0,,00.0,0676.8,31.0
2021-10-18T18:29:00Z,00000200,01000000,0001.81,0001.04,0000.78,0000.27,0000.02,0000.16,0000.56,0000.20,-000.23,17.4,24.0,,00.0,0676.8,30.9
2021-10-18T18:30:00Z,00000200,01000000,0001.71,0001.27,0000.42,-000.00,0000.03,-000.14,0000.55,0000.27,0000.29,17.3,23.9,,00.0,0676.8,30.9
2021-10-18T18:31:00Z,00000200,01000000,0001.78,0001.33,0000.60,0000.36,0000.28,0000.22,0000.41,0000.57,0000.75,17.3,23.9,,00.0,0676.8,30.9
2021-10-18T18:32:00Z,00000200,01000000,0001.15,0000.81,0000.47,0000.43,0000.29,0000.27,0000.68,0000.98,0000.08,17.3,23.9,,00.0,0676.8,30.9
2021-10-18T18:33:00Z,00000200,01000000,0000.34,0000.76,0000.47,0000.31,0000.51,-000.14,0000.91,0000.60,0000.63,17.4,23.9,,00.0,0676.8,30.9
2021-10-18T18:34:00Z,00000200,01000000,0001.41,0000.94,0000.24,-000.01,0000.39,0000.08,0000.55,0000.38,0000.53,17.4,24.0,,00.0,0676.8,31.0
2021-10-18T18:35:00Z,00000200,01000000,0001.41,0000.91,0000.13,-000.43,0000.01,0000.31,0000.45,0000.81,0000.11,17.5,24.0,,00.0,0676.8,31.0
2021-10-18T18:36:00Z,00000200,01000000,0001.76,0001.60,0000.36,0000.36,0000.21,0000.21,0000.45,0000.43,0000.60,17.6,24.0,,00.0,0676.9,31.0
2021-10-18T18:37:00Z,00000200,01000000,0002.88,0001.28,0000.36,-000.21,0000.47,0000.07,0000.66,0000.60,0000.14,17.7,24.1,,00.0,0676.9,31.0
2021-10-18T18:38:00Z,00000200,01000000,0001.95,0001.61,0000.51,0000.13,-000.10,0000.19,0000.14,0000.19,0000.39,17.7,24.1,,00.0,0676.9,31.0
2021-10-18T18:39:00Z,00000200,01000000,0001.74,0001.28,0000.72,0000.34,0000.43,0000.35,0000.87,0000.69,0000.23,17.8,24.1,,00.0,0676.9,31.0
2021-10-18T18:40:00Z,00000200,01000000,0002.20,0000.99,0000.56,0000.50,-000.04,0000.15,0000.41,0000.10,0000.49,17.8,24.1,,00.0,0676.9,31.0
2021-10-18T18:41:00Z,00000200,01000000,0001.42,0001.45,0000.46,0000.36,0000.09,0000.26,0000.41,0000.35,0000.11,17.9,24.2,,00.0,0676.9,31.0
2021-10-18T18:42:00Z,00000200,01000000,0000.81,0001.02,0000.31,-000.16,0000.05,0000.26,0000.23,0000.28,-000.18,17.8,24.2,,00.0,0676.9,31.0
2021-10-18T18:43:00Z,00000200,01000000,0001.38,0001.18,0000.63,0000.24,0000.21,0000.56,0000.62,0000.70,0000.51,17.8,24.2,,00.0,0676.9,31.0
2021-10-18T18:44:00Z,00000200,01000000,0001.44,0001.29,0000.51,-000.18,-000.04,0000.14,0000.48,0000.41,0000.96,17.7,24.1,,00.0,0676.9,31.0
2021-10-18T18:45:00Z,00000200,01000000,0001.83,0001.21,0000.59,0000.10,-000.03,0000.21,0000.28,0000.35,-000.19,17.6,24.1,,00.0,0676.8,31.0
2021-10-18T18:46:00Z,00000200,01000000,0001.01,0001.20,0000.43,0000.39,0000.27,-000.10,0000.51,0000.19,0000.32,17.6,24.1,,00.0,0676.8,30.9
2021-10-18T18:47:00Z,00000200,01000000,0001.76,0001.03,0000.55,0000.35,-000.12,0000.14,0000.94,0000.61,0000.60,17.6,24.1,,00.0,0676.9,31.0
2021-10-18T18:48:00Z,00000200,01000000,0001.42,0001.02,0000.46,-000.42,0000.21,0000.22,0000.07,0000.67,0000.15,17.6,24.0,,00.0,0676.9,31.0
2021-10-18T18:49:00Z,00000200,01000000,0001.52,0000.91,0000.21,-000.03,-000.09,0000.17,0000.82,0000.44,0000.31,17.7,24.1,,00.0,0676.9,31.0
2021-10-18T18:50:00Z,00000200,01000000,0001.19,0001.20,0000.29,-000.40,0000.13,-000.01,0000.52,0000.60,0000.21,17.8,24.1,,00.0,0676.9,31.0
2021-10-18T18:51:00Z,00000200,01000000,0002.45,0001.05,0000.52,0000.70,0000.23,-000.01,0000.19,0000.28,0000.31,17.8,24.1,,00.0,0676.9,31.0
2021-10-18T18:52:00Z,00000200,01000000,0001.27,0000.94,0000.57,-000.15,0000.10,0000.35,0000.57,0000.14,0000.37,17.9,24.2,,00.0,0676.9,31.0
2021-10-18T18:53:00Z,00000200,01000000,0001.28,0001.13,0000.57,0000.74,-000.01,-000.08,0000.34,0000.30,0000.42,17.9,24.2,,00.0,0677.0,31.0
2021-10-18T18:54:00Z,00000200,01000000,0001.05,0000.86,0000.30,0000.31,0000.24,0000.34,-000.06,-000.11,-000.30,17.9,24.2,,00.0,0677.0,31.0
2021-10-18T18:55:00Z,00000200,01000000,0001.65,0000.54,0000.54,0000.39,0000.11,0000.41,0000.91,0001.24,0001.03,17.8,24.2,,00.0,0677.0,31.0
2021-10-18T18:56:00Z,00000200,01000000,0001.71,0000.76,0000.51,0000.39,0000.08,0000.17,-000.07,-000.02,-000.01,17.8,24.2,,00.0,0677.0,31.0
2021-10-18T18:57:00Z,00000200,41000000,,,,,,,0001.75,0001.23,0000.45,17.8,24.2,,00.0,0676.9,31.0
2021-10-18T18:58:00Z,00000200,61000000,,,,,,,-000.65,-000.27,-000.35,17.3,24.3,,00.0,0675.9,31.0
2021-10-18T18:59:00Z,00000200,21000000,,,,,,,-000.01,-000.51,-000.15,17.3,24.4,,00.0,0675.9,30.9
